Temperature
16 16 16 16 15 15 15 15 15 14 14 14 14 14 14 13 13 13 13 13 13 13 13 13 13 13 13 13 12 12 12 12 12 12 12 11 11 11 11 11 11 11 11
16 16 16 15 15 15 15 15 15 14 14 14 14 14 13 13 13 13 13 13 13 13 13 12 12 12 12 12 12 12 12 12 12 12 11 11 11 11 11 11 11 11 11
16 16 15 15 15 15 15 15 14 14 14 14 14 13 13 13 13 13 13 13 13 12 12 12 12 12 12 12 12 12 12 12 11 11 11 11 11 11 11 11 11 11 11
16 15 15 15 15 15 15 14 14 14 14 14 13 13 13 13 13 13 12 12 12 12 12 12 12 12 12 12 12 12 12 11 11 11 11 11 11 11 11 11 11 11 11
16 15 15 15 15 14 14 14 14 14 14 13 13 13 13 12 12 12 12 12 12 12 12 12 12 12 12 12 12 11 11 11 11 11 11 11 11 11 11 10 10 10 10
15 15 15 15 14 14 14 14 14 14 13 13 13 13 12 12 12 12 12 12 12 12 12 12 12 12 11 11 11 11 11 11 11 11 11 11 11 11 10 10 10 10 10
15 15 15 14 14 14 14 14 13 13 13 13 13 12 12 12 12 12 12 12 12 12 12 12 11 11 11 11 11 11 11 11 11 11 11 11 11 11 10 10 10 10 10
15 15 14 14 14 14 13 13 13 13 13 12 12 12 12 12 12 11 11 11 11 11 11 11 11 11 11 11 11 11 11 11 11 10 10 10 10 10 10 10 10 10 9
15 14 14 14 14 13 13 13 12 12 12 12 12 12 12 12 11 11 11 11 11 11 11 11 11 11 11 10 10 10 10 10 10 10 10 10 10 10 10 9 9 9 9
14 14 14 14 13 13 13 12 12 12 12 12 12 11 11 11 11 11 11 11 11 11 11 11 11 10 10 10 10 10 10 10 10 10 10 10 10 10 9 9 9 9 9
14 14 13 13 13 13 12 12 12 12 12 11 11 11 11 11 11 11 10 10 10 10 10 10 10 10 10 10 10 10 10 10 10 10 10 10 10 10 10 9 9 9 9
13 13 13 13 12 12 12 12 12 11 11 11 11 11 11 11 11 11 10 10 10 10 10 10 10 10 10 9 9 9 9 9 9 9 9 9 9 10 9 9 9 9 9
13 13 13 12 12 12 12 12 11 11 11 11 11 11 11 11 10 10 10 10 10 10 10 10 10 9 9 9 9 9 9 9 9 9 9 9 9 9 9 9 9 9 8
12 12 12 12 12 12 11 11 11 11 11 11 10 10 10 10 10 10 10 10 10 10 10 9 9 9 9 9 9 9 8 8 8 8 8 8 8 8 8 8 8 8 8
11 11 11 11 11 11 11 11 11 11 11 11 11 10 10 10 10 10 10 10 10 10 9 9 9 8 8 8 8 8 8 8 8 8 8 8 8 8 8 8 8 8 8
11 11 11 11 10 10 10 10 10 10 10 10 10 10 10 10 10 10 10 9 9 9 9 9 8 8 8 8 8 8 8 8 8 8 8 8 8 8 8 8 7 7 7
10 10 10 10 10 10 10 10 10 10 10 10 10 9 10 10 10 9 9 9 9 9 8 8 8 8 8 8 8 8 8 8 8 7 7 7 7 7 7 7 7 7 7
9 9 9 9 9 9 9 9 9 9 9 9 9 9 9 9 9 9 9 8 8 8 8 8 8 8 8 8 8 8 8 7 7 7 7 7 7 7 7 7 7 7 7
9 9 9 8 8 8 8 8 8 8 8 8 9 9 9 8 8 8 8 8 8 8 8 8 8 8 8 8 7 7 7 7 7 7 7 7 7 6 6 6 6 6 6
9 9 8 8 8 8 8 8 8 8 8 8 8 8 8 8 8 8 8 8 8 8 8 8 7 7 7 7 7 7 7 7 7 7 7 6 6 6 6 6 6 6 6
8 8 8 8 7 7 7 7 7 7 7 7 7 7 7 7 7 7 7 7 7 7 7 7 7 7 7 7 7 7 7 7 6 6 6 6 6 6 6 6 6 6 6
7 8 7 7 7 7 7 7 7 7 6 6 6 6 6 7 7 7 7 7 7 7 7 6 6 6 6 7 7 7 6 6 6 6 6 6 6 6 6 5 5 5 5
7 7 7 7 7 6 6 6 6 6 6 6 6 6 6 6 6 6 6 6 6 6 6 6 6 6 6 6 6 6 6 6 6 6 6 6 5 5 5 5 5 5 5
7 6 6 6 6 6 6 6 6 6 6 6 5 5 5 5 5 5 5 5 5 5 5 5 5 5 5 5 6 6 6 6 6 5 5 5 5 5 5 5 5 5 5
6 6 6 6 5 5 5 5 5 5 5 5 5 5 5 5 5 5 5 5 5 5 5 5 5 5 5 5 5 5 5 5 5 5 5 5 4 4 4 4 4 4 4
6 5 5 5 5 5 5 5 5 5 5 4 4 4 4 4 4 4 5 4 4 5 4 4 4 4 4 4 5 5 5 5 5 4 4 4 4 4 4 4 4 4 4
Wind_Speed
4 4 4 4 4 4 4 4 4 3 3 3 3 3 3 3 2 1 1 1 2 1 2 3 3 2 2 2 2 2 2 2 2 2 1 1 1 2 2 2 2 2 1
5 4 4 4 3 3 4 4 4 4 4 4 4 4 4 3 3 3 3 2 2 2 3 3 3 2 2 2 2 2 1 2 3 2 1 1 1 2 2 2 1 1 1
4 4 4 3 4 4 4 4 4 4 3 3 3 4 4 4 4 3 3 2 2 3 3 3 4 4 3 2 3 2 2 1 2 3 2 1 1 1 1 1 1 0 1
4 4 5 5 5 5 4 4 4 4 4 4 3 4 3 3 4 3 3 3 2 2 2 3 4 5 5 4 3 3 2 2 2 2 2 1 1 1 2 1 0 1 1
4 5 5 5 5 4 4 4 4 4 4 4 3 3 2 3 4 4 4 3 3 2 2 3 4 5 5 5 4 4 4 3 2 2 2 1 1 2 2 2 2 1 1
4 5 5 4 4 4 4 4 3 3 3 3 3 3 3 3 5 6 5 4 3 3 3 3 3 4 5 6 6 6 7 6 5 4 3 4 5 4 3 3 3 2 2
4 4 4 4 4 4 4 3 4 4 3 3 4 4 4 5 6 6 7 4 4 4 4 4 3 3 3 2 4 5 6 7 8 7 5 6 6 6 5 4 4 4 4
4 4 4 4 4 4 4 4 4 3 4 4 4 4 4 5 6 7 7 4 4 4 4 5 4 4 3 3 3 2 3 4 5 5 6 7 6 6 7 6 6 3 1
5 5 5 5 5 5 5 5 4 4 4 4 4 4 4 4 5 6 6 4 4 4 4 4 5 5 5 5 3 3 3 3 4 5 6 6 6 7 7 4 4 3 2
6 6 6 5 5 5 6 5 4 4 5 4 4 4 5 5 5 6 6 4 4 4 3 4 6 6 7 7 5 4 5 4 3 2 3 3 3 5 8 7 6 4 3
5 4 4 5 5 5 5 4 4 4 4 4 4 4 5 5 5 6 6 4 5 4 4 4 5 7 7 7 6 5 7 5 3 3 2 2 2 3 4 6 7 6 5
3 3 4 4 4 3 4 3 4 4 4 4 4 4 4 4 5 6 6 7 5 5 5 4 5 7 6 6 5 5 5 3 2 2 2 3 3 4 4 5 7 7 7
2 3 3 3 3 3 4 4 4 4 4 4 4 4 4 3 4 5 6 7 7 5 5 6 6 6 6 5 5 5 4 3 2 3 4 5 4 4 3 3 4 5 5
3 3 3 3 3 3 3 4 4 4 5 5 5 5 4 3 3 3 4 4 5 5 3 4 5 5 4 4 4 3 3 4 4 4 4 4 2 2 3 3 3 3 2
3 3 3 2 3 3 3 3 5 5 7 7 6 6 5 6 7 7 5 5 5 5 3 1 1 2 2 2 2 3 3 3 4 3 3 3 3 3 4 3 3 3 3
2 3 2 2 2 2 2 3 4 4 6 8 7 7 6 8 7 7 8 7 7 6 4 3 4 4 5 5 5 4 4 4 5 4 4 4 4 5 4 3 3 4 5
2 3 2 2 2 2 2 2 3 4 5 5 6 6 7 7 6 6 7 7 7 7 4 5 5 6 6 5 5 5 5 5 4 4 5 5 5 5 4 4 4 4 5
3 3 3 3 3 3 3 3 3 3 3 4 4 5 5 5 5 5 5 4 3 5 4 5 6 6 5 6 6 5 5 4 4 4 5 5 5 5 5 5 5 6 6
3 2 2 3 3 3 3 2 3 3 3 3 3 3 4 4 4 4 4 4 5 5 5 5 5 5 5 5 5 5 5 5 5 5 5 5 5 5 5 6 6 8 7
3 4 3 2 2 2 2 2 2 2 2 2 3 3 1 0 1 2 3 4 5 5 5 6 5 5 6 6 6 5 5 5 6 6 6 6 6 6 6 7 6 6 7
3 3 4 3 2 2 2 3 3 3 3 3 3 3 2 2 3 3 4 4 5 5 5 5 5 5 6 6 6 6 6 6 6 6 6 6 6 6 6 6 7 7 6
2 2 2 2 2 2 3 3 3 3 3 3 3 3 3 2 2 3 3 4 5 4 4 4 5 5 5 6 6 6 6 7 6 6 7 6 6 6 6 6 6 6 6
2 2 2 2 2 3 3 2 2 3 3 3 3 3 2 3 3 4 4 4 4 4 3 4 4 4 4 5 6 6 7 7 7 7 7 6 6 6 6 7 7 7 7
2 2 2 2 2 2 2 3 3 3 3 3 3 3 4 4 4 4 4 4 4 4 4 4 5 6 7 6 5 6 7 7 7 7 8 7 7 6 6 6 7 8 8
1 1 2 2 2 2 2 3 3 3 3 3 3 3 3 3 3 3 4 3 4 4 5 5 5 6 7 8 7 7 8 9 9 7 6 7 7 7 7 7 7 7 7
2 2 2 2 2 2 2 2 3 3 3 2 2 3 3 3 3 3 3 3 4 4 5 5 5 6 7 7 9 10 10 9 9 9 6 6 7 7 7 7 8 8 8
Wind_Direction
187 189 180 189 189 181 184 193 191 188 188 194 197 187 190 198 199 195 220 197 186 194 187 177 181 159 150 158 144 136 136 142 174 244 238 200 164 170 146 160 172 169 178
193 188 197 201 194 187 195 203 192 190 195 198 194 188 195 197 194 194 212 213 204 202 207 189 189 171 169 172 160 168 180 172 165 196 214 193 191 182 163 168 162 182 198
193 185 194 199 200 206 208 203 193 193 194 195 184 191 199 197 197 199 195 201 213 218 209 198 195 178 187 194 185 186 192 175 159 167 203 206 189 143 119 139 139 300 204
198 192 196 206 209 213 210 200 198 195 190 194 195 205 207 208 205 203 194 198 212 216 209 203 193 185 192 192 192 192 175 146 136 152 179 192 186 169 136 148 206 304 259
192 202 211 212 210 207 206 203 201 195 196 197 197 205 207 208 215 205 197 192 198 211 216 213 210 204 202 196 195 189 172 164 158 164 188 196 209 187 195 189 189 230 287
196 218 221 211 205 207 212 202 196 197 199 192 193 201 215 230 227 210 201 193 199 205 215 227 227 217 221 217 210 194 178 175 185 186 201 208 219 211 194 183 169 147 256
203 225 227 214 208 213 216 196 199 203 200 204 207 208 223 238 230 219 213 195 200 208 209 213 225 230 216 209 215 209 205 202 191 185 198 213 211 206 187 185 188 187 213
210 221 225 216 213 209 202 205 210 204 203 208 214 221 227 242 233 224 217 204 206 214 208 203 202 212 215 189 188 195 224 229 218 206 212 219 215 205 192 188 186 179 192
218 224 224 220 214 208 208 213 212 203 208 214 217 221 230 248 239 228 217 203 212 223 216 206 197 201 212 188 175 194 233 262 254 239 240 230 221 203 177 149 151 156 204
230 226 223 219 216 216 215 215 214 207 212 214 224 222 225 236 243 237 213 198 207 219 221 221 217 213 210 194 189 193 217 236 237 251 253 250 221 199 186 183 182 182 185
251 232 226 220 217 215 213 213 209 207 211 218 228 235 232 234 239 232 214 202 205 206 219 225 225 221 216 212 204 204 224 221 210 212 226 239 227 211 208 198 192 188 191
272 240 232 227 225 218 205 217 210 201 210 219 226 241 244 241 236 232 219 211 204 203 222 227 223 220 217 215 212 226 227 202 177 190 212 228 228 230 228 215 211 213 212
287 254 248 247 237 221 207 211 210 203 212 223 223 235 252 250 243 235 227 219 213 213 225 225 222 217 215 215 220 221 211 193 184 209 225 235 234 229 215 212 218 225 238
294 268 256 243 250 244 226 218 215 210 217 225 226 232 244 246 236 229 227 227 221 223 232 231 221 214 204 209 214 217 210 203 202 216 230 243 241 221 213 208 211 205 220
306 287 269 253 243 244 244 233 228 227 221 221 228 226 224 236 239 227 214 217 216 214 193 176 177 187 204 216 221 227 221 214 221 224 226 236 238 230 229 215 200 196 211
316 301 277 263 252 246 254 281 272 263 256 243 239 234 235 236 235 222 218 216 209 193 176 195 209 211 216 220 225 233 231 228 225 223 225 228 232 230 230 223 208 205 221
291 290 282 271 260 249 246 244 281 303 292 269 257 249 243 239 226 217 211 205 198 183 193 213 218 220 222 223 225 227 231 234 227 222 227 231 236 233 228 225 221 221 229
281 286 283 262 253 250 249 247 241 247 278 298 289 266 246 236 229 224 204 178 198 199 212 218 223 223 222 223 224 229 234 229 224 227 229 232 231 229 230 228 225 227 231
281 280 276 265 252 249 252 255 254 248 254 276 298 296 270 250 238 228 191 203 212 217 222 227 229 228 227 226 229 230 229 227 228 227 229 233 231 228 233 232 229 233 229
284 281 285 264 253 254 250 251 255 255 259 264 267 271 284 318 248 229 223 226 224 225 226 229 232 231 232 231 229 228 229 232 231 231 234 235 231 227 231 234 232 233 231
288 286 290 279 249 243 238 239 246 245 252 261 266 268 246 224 231 235 234 234 232 231 230 231 232 233 235 233 229 228 230 235 233 234 237 237 231 229 231 232 234 234 236
277 273 273 270 264 256 253 247 243 240 244 258 283 283 260 257 254 251 246 249 247 244 238 235 238 238 236 234 231 230 233 238 237 235 238 236 230 231 232 233 236 237 237
283 277 279 281 272 269 266 260 251 245 248 253 266 276 264 253 254 253 254 255 254 254 253 247 248 253 253 250 244 234 235 239 239 234 234 234 232 232 231 232 234 235 236
275 275 277 283 280 274 268 267 264 258 254 257 260 265 261 255 255 258 261 262 262 262 258 253 251 255 256 257 259 252 248 248 247 242 231 231 233 233 232 235 237 238 235
278 275 275 277 282 278 275 274 272 268 267 264 268 274 274 267 264 268 269 268 267 269 269 265 261 259 258 257 260 261 255 248 247 250 243 233 234 234 234 235 236 238 237
285 274 274 280 286 284 275 274 274 276 275 277 278 273 270 271 275 277 276 277 278 279 278 272 272 270 272 268 263 260 256 252 250 247 246 240 236 237 235 235 236 234 234
Height
1518 1518 1519 1519 1519 1520 1520 1520 1520 1519 1519 1519 1519 1518 1518 1518 1518 1518 1518 1518 1518 1518 1518 1518 1518 1519 1519 1519 1519 1519 1519 1519 1519 1519 1520 1521 1521 1521 1522 1522 1522 1521 1521
1515 1516 1517 1517 1517 1517 1517 1517 1517 1517 1517 1516 1516 1516 1516 1516 1516 1516 1516 1516 1516 1516 1516 1516 1517 1517 1517 1517 1517 1517 1517 1517 1518 1517 1518 1518 1519 1520 1520 1520 1520 1520 1520
1513 1513 1514 1514 1514 1514 1514 1514 1514 1514 1514 1514 1514 1513 1513 1514 1514 1514 1514 1514 1513 1514 1514 1514 1514 1514 1515 1515 1515 1515 1515 1516 1516 1516 1516 1516 1517 1517 1518 1518 1518 1518 1518
1510 1510 1510 1510 1511 1511 1511 1511 1511 1511 1511 1511 1511 1510 1510 1511 1511 1511 1511 1511 1511 1511 1511 1512 1512 1512 1512 1512 1513 1513 1513 1514 1514 1514 1514 1514 1514 1515 1516 1516 1516 1517 1516
1506 1507 1507 1507 1507 1507 1508 1507 1507 1507 1507 1507 1507 1507 1507 1507 1507 1507 1508 1508 1508 1508 1509 1509 1509 1509 1510 1510 1510 1510 1511 1511 1511 1511 1511 1511 1512 1512 1513 1513 1514 1514 1514
1503 1503 1503 1503 1503 1503 1504 1504 1504 1503 1503 1503 1503 1503 1503 1503 1503 1504 1504 1504 1504 1505 1505 1506 1506 1506 1506 1507 1507 1508 1508 1508 1508 1509 1509 1509 1509 1510 1510 1511 1511 1511 1511
1499 1499 1499 1499 1499 1499 1499 1499 1499 1499 1499 1499 1499 1499 1499 1499 1499 1500 1500 1500 1501 1501 1501 1502 1502 1503 1503 1503 1504 1504 1505 1505 1506 1506 1506 1506 1506 1507 1507 1508 1508 1508 1509
1495 1495 1495 1495 1495 1494 1495 1495 1495 1495 1495 1495 1495 1495 1495 1495 1495 1496 1496 1496 1497 1497 1497 1498 1499 1499 1500 1500 1500 1500 1501 1502 1502 1503 1503 1503 1504 1504 1505 1505 1505 1506 1507
1491 1491 1490 1490 1490 1490 1490 1490 1490 1490 1490 1490 1491 1491 1491 1491 1491 1491 1492 1492 1492 1493 1493 1494 1495 1495 1496 1496 1496 1497 1497 1498 1499 1499 1500 1500 1500 1501 1501 1501 1502 1502 1502
1486 1486 1486 1486 1485 1485 1485 1485 1485 1486 1485 1486 1486 1486 1486 1487 1487 1487 1487 1487 1488 1488 1489 1490 1491 1491 1492 1492 1492 1493 1493 1493 1494 1495 1495 1496 1496 1497 1497 1498 1498 1499 1499
1481 1481 1481 1481 1480 1480 1480 1481 1481 1481 1481 1482 1482 1482 1482 1482 1483 1483 1483 1483 1483 1484 1484 1485 1486 1487 1488 1489 1489 1489 1490 1490 1490 1491 1491 1491 1492 1492 1493 1494 1494 1495 1495
1477 1476 1476 1476 1476 1476 1476 1476 1476 1476 1476 1477 1477 1477 1477 1478 1478 1479 1479 1479 1480 1480 1480 1481 1482 1483 1484 1485 1485 1486 1486 1487 1487 1487 1487 1487 1488 1488 1489 1490 1490 1491 1492
1473 1472 1471 1471 1471 1471 1471 1471 1471 1471 1472 1472 1472 1472 1472 1473 1474 1474 1475 1475 1475 1476 1476 1477 1478 1479 1480 1480 1481 1482 1482 1482 1482 1482 1482 1483 1484 1485 1485 1485 1486 1487 1487
1469 1468 1467 1467 1466 1466 1466 1466 1466 1466 1466 1467 1467 1467 1467 1468 1469 1470 1470 1471 1471 1472 1472 1473 1474 1475 1475 1476 1477 1477 1477 1478 1478 1478 1478 1479 1480 1480 1480 1480 1481 1481 1482
1466 1464 1463 1462 1462 1461 1461 1461 1461 1462 1462 1462 1462 1463 1463 1463 1464 1465 1465 1466 1466 1467 1468 1468 1469 1470 1470 1470 1471 1472 1472 1473 1473 1473 1474 1474 1474 1475 1475 1476 1476 1476 1477
1462 1461 1460 1458 1457 1457 1457 1456 1457 1457 1457 1457 1458 1458 1458 1459 1460 1460 1461 1462 1462 1463 1463 1463 1463 1464 1464 1465 1466 1466 1467 1467 1468 1468 1469 1469 1469 1470 1470 1471 1471 1471 1471
1460 1458 1456 1455 1454 1453 1452 1451 1451 1451 1452 1452 1452 1453 1453 1453 1454 1455 1456 1457 1457 1458 1458 1458 1458 1459 1459 1460 1460 1461 1461 1462 1463 1463 1463 1463 1464 1464 1465 1465 1465 1466 1466
1456 1454 1453 1451 1451 1450 1449 1448 1447 1447 1446 1446 1447 1447 1448 1448 1449 1450 1451 1452 1452 1452 1452 1452 1453 1453 1454 1454 1455 1455 1456 1456 1457 1457 1458 1458 1458 1459 1459 1460 1460 1460 1461
1451 1450 1449 1448 1447 1446 1445 1444 1444 1443 1443 1442 1442 1442 1443 1443 1444 1444 1445 1446 1446 1446 1446 1447 1447 1448 1448 1448 1449 1450 1450 1450 1451 1451 1452 1452 1453 1453 1453 1454 1454 1455 1455
1447 1446 1445 1444 1443 1442 1441 1440 1440 1439 1438 1438 1438 1438 1438 1438 1438 1438 1439 1440 1440 1440 1441 1441 1441 1442 1442 1443 1443 1444 1444 1444 1445 1445 1445 1446 1446 1447 1447 1448 1448 1449 1449
1443 1442 1441 1440 1439 1438 1438 1437 1436 1436 1435 1434 1434 1434 1434 1434 1434 1434 1434 1434 1435 1435 1435 1435 1436 1436 1436 1437 1437 1437 1438 1438 1438 1439 1439 1440 1440 1440 1441 1441 1442 1442 1443
1440 1438 1437 1436 1435 1435 1434 1433 1433 1432 1431 1431 1430 1430 1430 1430 1429 1429 1429 1430 1430 1430 1430 1430 1430 1430 1430 1431 1431 1431 1431 1431 1432 1432 1433 1433 1433 1434 1434 1435 1435 1436 1436
1436 1435 1434 1433 1432 1431 1430 1429 1429 1428 1428 1427 1426 1426 1426 1425 1425 1425 1425 1425 1424 1424 1424 1424 1424 1424 1424 1424 1425 1425 1425 1425 1425 1426 1426 1426 1427 1427 1427 1428 1428 1429 1429
1433 1431 1430 1429 1428 1427 1426 1425 1425 1424 1424 1423 1422 1422 1422 1421 1421 1420 1420 1420 1420 1419 1419 1418 1418 1418 1418 1418 1418 1418 1418 1418 1419 1419 1419 1419 1420 1420 1421 1421 1422 1422 1423
1429 1428 1427 1426 1425 1424 1423 1422 1421 1420 1420 1419 1418 1417 1417 1416 1416 1415 1415 1414 1414 1414 1413 1412 1412 1411 1411 1411 1411 1411 1411 1411 1412 1412 1412 1412 1412 1413 1413 1414 1415 1415 1416
1426 1425 1424 1423 1422 1420 1419 1418 1417 1417 1416 1415 1414 1413 1412 1411 1411 1410 1410 1409 1408 1408 1407 1407 1406 1405 1405 1404 1404 1404 1404 1404 1404 1404 1404 1404 1404 1405 1406 1406 1407 1408 1408